(70) Panopaea
ephemeris date magn radius delta ra dec elong phase
Today27 Jul 202612.32.243 AU1.731 AU15h03m-24°49'106.6°25.7°
Opposition2 Nov 202711.42.581 AU1.589 AU02h33m+12°21'177.3°1.0°
(70) Panopaea - 2026-07-27
astro.vanbuitenen.nl


 
-1 year
-1 month
-1 day
Now
+1 day
+1 month
+1 year

The interactive orbit chart above shows the body's path through the solar system and its position at the given date. Green and blue lines are shown perpendicular to the ecliptic plane: Green if the path is above the ecliptic plane, blue if it is below. (Left-click and drag to rotate the view; Right-click and drag to move the view; Use scroll wheel to zoom in our out.)

The orbital elements of Panopaea are:

            e (Eccentricity)                : 0.1831105
            a (Semimajor axis)              : 2.6139718
            i (Inclination)                 : 11.59605
            Ω (Longitude of ascending node) : 47.63840
            ω (Argument of perihelion)      : 255.40133
            M (Mean anomaly)                : 316.26477
            Epoch                           : 2026 Jun 09

            L (Longitude of perihelion)     : 122.74893
            B (Latitude of perihelion)      : -11.21673
            P (Orbital period in years)     : 4.23            
        

The light curve chart below shows the estimated development of the minor planet's magnitude.


The all-sky chart below shows the path of the minor planet over the same period as the light curve. The current position is marked yellow.





The following chart shows the path of the minor planet in the next few days. The field of view is optimized for (~10x50) binoculars and finderscopes.




Ephemerides:
Date       Time       RA (2000)    DEC (2000)    delta   radius  elong  phase   PA    magn
2026-07-27 00:00 UT   15 03 07.1   -24 49 28     1.731    2.243  106.6   25.7   104   12.3 
2026-07-27 15:09 UT   15 03 34.5   -24 52 17     1.737    2.242  106.1   25.8   104   12.3 
2026-07-28 00:00 UT   15 03 50.8   -24 53 56     1.741    2.241  105.8   25.8   104   12.3 
2026-07-29 00:00 UT   15 04 36.0   -24 58 27     1.751    2.240  105.0   26.0   104   12.3 
2026-07-30 00:00 UT   15 05 23.0   -25 03 02     1.760    2.239  104.3   26.1   104   12.3 
2026-07-31 00:00 UT   15 06 11.5   -25 07 39     1.770    2.237  103.5   26.2   104   12.3 
2026-08-01 00:00 UT   15 07 01.6   -25 12 20     1.780    2.236  102.8   26.3   104   12.4 
2026-08-02 00:00 UT   15 07 53.4   -25 17 04     1.790    2.234  102.0   26.4   104   12.4 
2026-08-03 00:00 UT   15 08 46.7   -25 21 50     1.800    2.233  101.3   26.5   104   12.4 
2026-08-04 00:00 UT   15 09 41.5   -25 26 40     1.810    2.232  100.6   26.5   104   12.4 
2026-08-05 00:00 UT   15 10 37.9   -25 31 32     1.820    2.230   99.9   26.6   104   12.4 
2026-08-06 00:00 UT   15 11 35.8   -25 36 26     1.830    2.229   99.1   26.7   104   12.4 
2026-08-07 00:00 UT   15 12 35.3   -25 41 23     1.840    2.228   98.4   26.8   104   12.4 
2026-08-08 00:00 UT   15 13 36.2   -25 46 23     1.850    2.226   97.7   26.8   104   12.4 
2026-08-09 00:00 UT   15 14 38.6   -25 51 24     1.860    2.225   97.0   26.9   104   12.5 
2026-08-10 00:00 UT   15 15 42.5   -25 56 28     1.871    2.224   96.3   26.9   104   12.5 
2026-08-11 00:00 UT   15 16 47.8   -26 01 34     1.881    2.222   95.6   27.0   104   12.5 
2026-08-12 00:00 UT   15 17 54.6   -26 06 42     1.891    2.221   94.9   27.0   104   12.5 
2026-08-13 00:00 UT   15 19 02.7   -26 11 52     1.901    2.220   94.3   27.1   104   12.5 
2026-08-14 00:00 UT   15 20 12.3   -26 17 03     1.911    2.218   93.6   27.1   104   12.5 
2026-08-15 00:00 UT   15 21 23.3   -26 22 16     1.922    2.217   92.9   27.1   104   12.5 
2026-08-16 00:00 UT   15 22 35.7   -26 27 30     1.932    2.216   92.2   27.2   104   12.5 
2026-08-17 00:00 UT   15 23 49.4   -26 32 46     1.942    2.214   91.6   27.2   104   12.5 
2026-08-18 00:00 UT   15 25 04.4   -26 38 03     1.952    2.213   90.9   27.2   104   12.6 
2026-08-19 00:00 UT   15 26 20.8   -26 43 21     1.962    2.212   90.3   27.2   104   12.6 
2026-08-20 00:00 UT   15 27 38.5   -26 48 40     1.973    2.211   89.6   27.2   104   12.6 
2026-08-21 00:00 UT   15 28 57.5   -26 53 60     1.983    2.209   89.0   27.2   104   12.6 
2026-08-22 00:00 UT   15 30 17.7   -26 59 20     1.993    2.208   88.3   27.2   104   12.6 
2026-08-23 00:00 UT   15 31 39.2   -27 04 41     2.003    2.207   87.7   27.2   104   12.6 
2026-08-24 00:00 UT   15 33 01.9   -27 10 03     2.013    2.206   87.0   27.2   104   12.6 
2026-08-25 00:00 UT   15 34 25.9   -27 15 24     2.024    2.205   86.4   27.2   104   12.6 
2026-08-26 00:00 UT   15 35 51.1   -27 20 46     2.034    2.203   85.8   27.2   104   12.6 


    Terminology:
            
    delta:  distance between minor planet and earth in AU
    radius: distance between minor planet and sun in AU
    magn:   magnitude (brightness) estimate    
    ra:     right ascension in hours (24h = 360deg)
    dec:    declination in degrees
    elong:  elongation in degrees (angle sun-earth-minor planet)    
    phase:  phase angle in degrees (angle sun-minor planet-earth)        
    AU:     Astronomical Unit (mean distance between earth and sun: 149597870.7 km
    

Orbital elements provided by the MPC (Minor Planet Center).
Calculations by a modified version of AAPlus, a C# implementation of the AA+ project by PJ Naughter from the algorithms presented in the book "Astronomical Algorithms" by Jean Meeus.
NGC2000 dso catalog and star labels from VizieR as provided by the Strasbourg astronomical Data Center.
Tycho2 catalog from the ESO archive.